NOAA 16 DEB, 41343

Orbit data source: Space-Track

NOAA 16 DEB, 41343 is space debris in SSO originally from a launch on Thu, 21 Sep 2000 UTC launched from the Air Force Western Test Range (AFWTR). Debris objects in space refer to the collection of defunct objects orbiting the Earth. Examples of debris include non-operational satellites, rocket bodies, and fragments generated from explosions, collisions, or faulty payload assembly.

Loading next visibility...
Identifier
41343, 2000-055HL
Orbit
SSO
Country
Flag of USUS
Related business
Manufacturer
Unknown
Mission
Spacecraft
Bus & Motor
Unknown
Mass
Unknown
Launch date (UTC)
2000-09-21 (25 years ago)
Launch vehicle
Unknown
Launch site
Air Force Western Test Range (AFWTR)
Object type
Payload
Rocket body
Debris
Shape & HBR
Unknown shape, 0.1 m
Radar Cross Section
Small (<0.1 m²)

Expand to show TLE details & history
Last TLE update: 11 hours ago

TLE from 11 hours ago
0 NOAA 16 DEB
1 41343U 00055HL  25312.60027376  .00008362  00000-0  30557-2 0  9990
2 41343  98.6068   6.3190 0023565 170.9801 189.1811 14.33046558506807
Epoch: 2025-11-08T14:24Z
TLE epoch observation values (Epoch: 2025-11-08T14:24:23.652Z)
Latitude
-0.00005°
Longitude
102.1929°
Altitude
801.161 km
Speed
7.444 km/s
True Right ascension
00h 25m 16s
True Declination
0° 00' 00"
Sunlit
Object was in full shadow at epoch
Visualization orbit readout
Latitude
Unknown
Longitude
Unknown
Altitude
Unknown
Speed
Unknown
Apparent Right ascension
Unknown
Apparent Declination
Unknown
Sunlit
N/A
Visualization observer readout
Local Sidereal Time
21:08:18
Azimuth
Unknown
Elevation
Unknown
Doppler factor
Unknown
Orbital elements
Apogee altitude
795.567 km
Perigee altitude
761.837 km
Semi-major axis
7,156.839 km
Eccentricity
0.00236
Inclination
98.6068°
RAAN
6.319°
Arg. of periapsis
170.9801°
True anomaly
189.13814°
Mean anomaly
189.1811°
Eccentric anomaly
189.15961°
Mean motion
3.58477 °/min
Orbital period
100.42 mins
BSTAR
0.0030557
Loading maneuver chart data...
Computing Atmospheric mass density...
Loading historical data...
Loading historical data...
Loading historical data...
Loading historical data...
Loading historical data...
Loading historical data...
Loading historical data...

Documentation

Showing up to 5 results
|